M I D A S
Marine Information and Data Acquisition System
Tripno 1511 of the Zeeleeuw from 2008-06-26 07:06:18 to 2008-06-26 14:06:15
Back to CruiseResearch ActivitiesStationsMapUnderway DataData graphs

EquipmentUnitsComment
TimeDGPSUTC
LatitudeDGPSDM.mWGS84
LongitudeDGPSDM.mWGS84
TemperatureSBE03/SBE38deg celciusITS90
ConductivitySBE21S/mITS90
SalinitySBE21 Practical Salinity Units
ChlorophylAChelsea fluorimeterg/lCalibrated in Aceton
Missing or incorrect values are displayed as -999
Sea surface data collected by the RV Zeeleeuw from 2008-06-26 07:00:21 to 2008-06-26 14:08:35
Time Latitude Longitude Temperature Conductivity Salinity ChlorophylA
2008-06-26 07:01:27 51°13.643 2°55.982 21.2931 0.011748 0.063217 -1.627401
2008-06-26 07:02:27 51°13.676 2°55.865 21.2945 0.011748 0.06322 -1.627401
2008-06-26 07:03:27 51°13.69 2°55.774 21.296 0.011748 0.063225 -1.627401
2008-06-26 07:04:27 51°13.692 2°55.726 21.3047 0.011748 0.06323 -1.627401
2008-06-26 07:05:27 51°13.716 2°55.74 21.307 0.011748 0.063232 -1.627401
2008-06-26 07:06:27 51°13.792 2°55.673 21.3002 0.011748 0.063227 -1.627401
2008-06-26 07:07:27 51°13.923 2°55.564 21.3116 0.011645 0.062712 -1.627401
2008-06-26 07:08:27 51°14.06 2°55.459 21.325 0.011645 0.06271 -1.627401
2008-06-26 07:09:27 51°14.195 2°55.343 21.3266 0.011645 0.062712 -1.627401
2008-06-26 07:10:26 51°14.306 2°55.173 21.3327 0.011645 0.062713 -1.627401
2008-06-26 07:11:27 51°14.422 2°54.939 21.3212 0.011645 0.062715 -1.627401
2008-06-26 07:12:26 51°14.55 2°54.699 21.335 0.011645 0.062719 -1.627401
2008-06-26 07:13:27 51°14.647 2°54.423 21.3233 0.011645 0.062724 -1.627401
2008-06-26 07:14:26 51°14.741 2°54.154 21.3149 0.011645 0.06273 -1.627401
2008-06-26 07:15:27 51°14.839 2°53.877 21.2767 0.011645 0.062736 -1.627401
2008-06-26 07:16:26 51°14.928 2°53.603 21.3111 0.011645 0.062741 -1.627401
2008-06-26 07:17:27 51°15.025 2°53.322 21.3083 0.011645 0.062746 -1.627401
2008-06-26 07:18:27 51°15.118 2°53.042 21.316 0.011645 0.062753 -1.627401
2008-06-26 07:19:26 51°15.201 2°52.762 21.3159 0.011645 0.06276 -1.627401
2008-06-26 07:20:26 51°15.284 2°52.477 21.31 0.011645 0.062767 -1.627401
2008-06-26 07:21:26 51°15.335 2°52.174 21.3241 0.011645 0.062773 -1.627401
2008-06-26 07:22:26 51°15.388 2°51.874 21.3132 0.011645 0.062777 -1.627401
2008-06-26 07:23:26 51°15.423 2°51.569 21.2648 0.011645 0.062785 -1.627401
2008-06-26 07:24:26 51°15.439 2°51.259 21.2673 0.011645 0.062787 -1.627401
2008-06-26 07:25:26 51°15.433 2°50.951 21.1884 0.011645 0.062791 -1.627401
2008-06-26 07:26:26 51°15.423 2°50.642 21.3305 0.011645 0.062794 -1.627401
2008-06-26 07:27:26 51°15.421 2°50.332 21.3501 0.011645 0.062799 -1.627401
2008-06-26 07:28:26 51°15.42 2°50.021 21.3271 0.011645 0.062803 -1.627401
2008-06-26 07:29:26 51°15.426 2°49.714 21.3469 0.011645 0.062809 -1.627401
2008-06-26 07:30:26 51°15.426 2°49.406 21.286 0.011645 0.062815 -1.627401
2008-06-26 07:31:26 51°15.424 2°49.096 21.3561 0.011645 0.062821 -1.627401
2008-06-26 07:32:26 51°15.43 2°48.785 21.3348 0.011645 0.062826 -1.627401
2008-06-26 07:33:26 51°15.428 2°48.477 21.2857 0.011645 0.062833 -1.627401
2008-06-26 07:34:26 51°15.433 2°48.168 21.356 0.011645 0.06284 -1.627401
2008-06-26 07:35:26 51°15.422 2°47.86 21.3217 0.011645 0.062848 -1.627401
2008-06-26 07:36:26 51°15.426 2°47.548 21.35 0.011645 0.062855 -1.627401
2008-06-26 07:37:26 51°15.423 2°47.235 21.3841 0.011645 0.062864 -1.627401
2008-06-26 07:38:26 51°15.411 2°46.923 21.3524 0.011645 0.062872 -1.627401
2008-06-26 07:39:26 51°15.402 2°46.61 21.3683 0.011645 0.06288 -1.627401
2008-06-26 07:40:26 51°15.401 2°46.297 21.397 0.011645 0.062889 -1.662225
2008-06-26 07:41:26 51°15.391 2°45.986 21.2648 0.011645 0.062898 -1.627401
2008-06-26 07:42:26 51°15.38 2°45.677 21.3793 0.011645 0.062907 -1.627401
2008-06-26 07:43:26 51°15.371 2°45.37 21.4182 0.011645 0.062917 -1.627401
2008-06-26 07:44:26 51°15.366 2°45.061 21.3127 0.011645 0.062926 -1.627401
2008-06-26 07:45:26 51°15.363 2°44.751 21.4117 0.011645 0.062935 -1.627401
2008-06-26 07:46:26 51°15.355 2°44.442 21.4129 0.011645 0.062945 -1.627401
2008-06-26 07:47:26 51°15.347 2°44.135 21.3367 0.011645 0.062954 -1.627401
2008-06-26 07:48:27 51°15.347 2°43.822 21.3599 0.011645 0.062964 -1.627401
2008-06-26 07:49:27 51°15.342 2°43.513 21.4162 0.011645 0.062973 -1.627401
2008-06-26 07:50:27 51°15.335 2°43.201 21.4375 0.011645 0.062983 -1.627401
2008-06-26 07:51:27 51°15.328 2°42.891 21.3824 0.011645 0.062994 -1.627401
2008-06-26 07:52:27 51°15.32 2°42.581 21.423 0.011645 0.063005 -1.627401
2008-06-26 07:53:27 51°15.333 2°42.269 21.2716 0.011645 0.063016 -1.627401
2008-06-26 07:54:27 51°15.378 2°41.963 21.3793 0.011645 0.063028 -1.627401
2008-06-26 07:55:27 51°15.444 2°41.662 21.3999 0.011645 0.063039 -1.627401
2008-06-26 07:56:27 51°15.518 2°41.366 21.4401 0.011645 0.063049 -1.627401
2008-06-26 07:57:27 51°15.593 2°41.07 21.348 0.011645 0.063059 -1.627401
2008-06-26 07:58:27 51°15.682 2°40.782 21.4905 0.011645 0.063068 -1.627401
2008-06-26 07:59:27 51°15.783 2°40.504 21.4795 0.011645 0.063079 -1.627401
2008-06-26 08:00:27 51°15.885 2°40.226 21.484 0.011645 0.063087 -1.627401
2008-06-26 08:01:27 51°15.978 2°39.942 21.5212 0.011645 0.063095 -1.627401
2008-06-26 08:02:27 51°16.073 2°39.661 21.502 0.011645 0.063104 -1.627401
2008-06-26 08:03:27 51°16.167 2°39.378 21.5127 0.011645 0.063113 -1.627401
2008-06-26 08:04:27 51°16.261 2°39.096 21.5409 0.011645 0.063123 -1.627401
2008-06-26 08:05:27 51°16.351 2°38.812 21.4608 0.011645 0.063132 -1.627401
2008-06-26 08:06:27 51°16.44 2°38.528 21.4976 0.011645 0.06314 -1.627401
2008-06-26 08:07:27 51°16.527 2°38.243 21.5601 0.011542 0.062637 -1.627401
2008-06-26 08:08:27 51°16.618 2°37.956 21.506 0.011542 0.062646 -1.627401
2008-06-26 08:09:27 51°16.715 2°37.673 21.5699 0.011542 0.062656 -1.627401
2008-06-26 08:10:27 51°16.814 2°37.397 21.552 0.011542 0.062666 -1.627401
2008-06-26 08:11:27 51°16.909 2°37.119 21.548 0.011542 0.062676 -1.627401
2008-06-26 08:12:27 51°17.004 2°36.839 21.5986 0.011542 0.062686 -1.627401
2008-06-26 08:13:27 51°17.098 2°36.558 21.4805 0.011542 0.062694 -1.627401
2008-06-26 08:14:27 51°17.194 2°36.277 21.5938 0.011542 0.062702 -1.627401
2008-06-26 08:15:27 51°17.285 2°35.991 21.6061 0.011542 0.062708 -1.627401
2008-06-26 08:16:27 51°17.382 2°35.709 21.5601 0.011542 0.062716 -1.627401
2008-06-26 08:17:27 51°17.47 2°35.424 21.6309 0.011542 0.062721 -1.627401
2008-06-26 08:18:27 51°17.559 2°35.136 21.6131 0.011542 0.062727 -1.627401
2008-06-26 08:19:27 51°17.655 2°34.856 21.5195 0.011542 0.062734 -1.627401
2008-06-26 08:20:27 51°17.739 2°34.572 21.5962 0.011542 0.06274 -1.627401
2008-06-26 08:21:27 51°17.8 2°34.316 21.6617 0.011542 0.062748 -1.627401
2008-06-26 08:22:27 51°17.802 2°34.242 21.6474 0.011542 0.062753 -1.627401
2008-06-26 08:23:27 51°17.806 2°34.252 21.6702 0.011542 0.062756 -1.627401
2008-06-26 08:24:26 51°17.812 2°34.27 21.6789 0.011542 0.062762 -1.627401
2008-06-26 08:25:27 51°17.799 2°34.298 21.635 0.011542 0.062767 -1.662225
2008-06-26 08:26:27 51°17.759 2°34.257 21.6382 0.011542 0.062772 -1.627401
2008-06-26 08:27:27 51°17.759 2°34.131 21.6942 0.011542 0.062779 -1.627401
2008-06-26 08:28:27 51°17.784 2°34.002 21.7017 0.011542 0.062782 -1.627401
2008-06-26 08:29:26 51°17.835 2°33.968 21.7157 0.011542 0.062786 -1.627401
2008-06-26 08:30:27 51°17.876 2°33.981 21.7296 0.011542 0.062788 -1.627401
2008-06-26 08:31:27 51°17.876 2°33.982 21.734 0.011542 0.062789 -1.627401
2008-06-26 08:32:27 51°17.875 2°33.985 21.7418 0.011542 0.062788 -1.627401
2008-06-26 08:33:27 51°17.876 2°34.035 21.7434 0.011542 0.06279 -1.627401
2008-06-26 08:34:26 51°17.862 2°34.112 21.7651 0.011542 0.062792 -1.627401
2008-06-26 08:35:27 51°17.901 2°34.2 21.7758 0.011542 0.062796 -1.627401
2008-06-26 08:36:27 51°17.959 2°34.174 21.7874 0.011542 0.0628 -1.627401
2008-06-26 08:37:27 51°17.943 2°34.087 21.7849 0.011542 0.062805 -1.627401
2008-06-26 08:38:26 51°17.901 2°34.052 21.8033 0.011542 0.06281 -1.627401
2008-06-26 08:39:26 51°17.873 2°34.005 21.8152 0.011542 0.062813 -1.627401
2008-06-26 08:40:27 51°17.84 2°34.012 21.8184 0.011542 0.062814 -1.627401
2008-06-26 08:41:27 51°17.825 2°34.086 21.8209 0.011542 0.062819 -1.627401
2008-06-26 08:42:27 51°17.853 2°34.146 21.8336 0.011542 0.062823 -1.627401
2008-06-26 08:43:27 51°17.88 2°34.177 21.8435 0.011542 0.062828 -1.627401
2008-06-26 08:44:27 51°17.902 2°34.2 21.8481 0.011542 0.062833 -1.627401
2008-06-26 08:45:27 51°17.921 2°34.219 21.8535 0.011542 0.06284 -1.627401
2008-06-26 08:46:26 51°17.935 2°34.233 21.8536 0.011542 0.062846 -1.627401
2008-06-26 08:47:27 51°17.948 2°34.245 21.8678 0.011542 0.062852 -1.627401
2008-06-26 08:48:26 51°17.958 2°34.258 21.8631 0.011542 0.062858 -1.627401
2008-06-26 08:49:27 51°17.967 2°34.271 21.8661 0.011542 0.062864 -1.627401
2008-06-26 08:50:27 51°17.974 2°34.284 21.8694 0.011542 0.062871 -1.627401
2008-06-26 08:51:26 51°17.979 2°34.299 21.8733 0.011542 0.062876 -1.627401
2008-06-26 08:52:27 51°17.983 2°34.315 21.877 0.011542 0.062882 -1.627401
2008-06-26 08:53:27 51°17.987 2°34.331 21.876 0.011542 0.062888 -1.627401
2008-06-26 08:54:26 51°17.99 2°34.347 21.8878 0.011542 0.062893 -1.627401
2008-06-26 08:55:26 51°17.992 2°34.363 21.8962 0.011542 0.0629 -1.627401
2008-06-26 08:56:27 51°17.994 2°34.378 21.8919 0.011542 0.062906 -1.627401
2008-06-26 08:57:27 51°17.996 2°34.391 21.9022 0.011542 0.062912 -1.627401
2008-06-26 08:58:26 51°17.998 2°34.404 21.897 0.011542 0.062917 -1.627401
2008-06-26 08:59:27 51°18.001 2°34.418 21.9082 0.011542 0.062925 -1.627401
2008-06-26 09:00:27 51°18.006 2°34.431 21.9127 0.011542 0.06293 -1.627401
2008-06-26 09:01:26 51°18.012 2°34.443 21.9213 0.011542 0.062937 -1.627401
2008-06-26 09:02:26 51°18.018 2°34.456 21.9127 0.011542 0.062942 -1.627401
2008-06-26 09:03:27 51°18.024 2°34.468 21.926 0.011542 0.062948 -1.627401
2008-06-26 09:04:26 51°18.029 2°34.48 21.9304 0.011542 0.062955 -1.627401
2008-06-26 09:05:27 51°18.033 2°34.492 21.9286 0.011542 0.06296 -1.627401
2008-06-26 09:06:26 51°18.037 2°34.503 21.9311 0.011542 0.062965 -1.627401
2008-06-26 09:07:26 51°18.04 2°34.515 21.9347 0.011542 0.062967 -1.627401
2008-06-26 09:08:27 51°18.042 2°34.526 21.9453 0.011542 0.062969 -1.627401
2008-06-26 09:09:27 51°18.043 2°34.539 21.9432 0.011542 0.062972 -1.627401
2008-06-26 09:10:27 51°18.058 2°34.541 21.9536 0.011542 0.062974 -1.627401
2008-06-26 09:11:27 51°18.095 2°34.445 21.9612 0.011542 0.06298 -1.627401
2008-06-26 09:12:27 51°18.051 2°34.356 21.9424 0.011542 0.062986 -1.627401
2008-06-26 09:13:27 51°18.001 2°34.34 21.9524 0.011542 0.06299 -1.627401
2008-06-26 09:14:27 51°17.978 2°34.358 21.9656 0.011542 0.062995 -1.627401
2008-06-26 09:15:27 51°17.965 2°34.377 21.968 0.011542 0.063 -1.627401
2008-06-26 09:16:27 51°17.955 2°34.394 21.9746 0.011542 0.063005 -1.627401
2008-06-26 09:17:27 51°17.946 2°34.406 21.9666 0.011542 0.06301 -1.627401
2008-06-26 09:18:27 51°17.939 2°34.417 21.9717 0.011542 0.063014 -1.627401
2008-06-26 09:19:27 51°17.937 2°34.425 21.9766 0.011542 0.063018 -1.627401
2008-06-26 09:20:27 51°17.935 2°34.434 21.9854 0.011542 0.063021 -1.627401
2008-06-26 09:21:27 51°17.933 2°34.447 21.9818 0.011542 0.063026 -1.627401
2008-06-26 09:22:27 51°17.933 2°34.457 21.9864 0.011542 0.063028 -1.627401
2008-06-26 09:23:27 51°17.933 2°34.468 21.9951 0.011542 0.063031 -1.627401
2008-06-26 09:24:27 51°17.933 2°34.479 21.9927 0.011542 0.063034 -1.592577
2008-06-26 09:25:27 51°17.923 2°34.488 21.9949 0.011542 0.063038 -1.627401
2008-06-26 09:26:27 51°17.901 2°34.468 21.9957 0.011542 0.063041 -1.627401
2008-06-26 09:27:26 51°17.903 2°34.395 21.9725 0.011542 0.063044 -1.627401
2008-06-26 09:28:28 51°17.939 2°34.365 21.9886 0.011542 0.063045 -1.627401
2008-06-26 09:29:26 51°17.973 2°34.365 22.0011 0.011542 0.063045 -1.627401
2008-06-26 09:30:27 51°18.008 2°34.372 22.0057 0.011542 0.063047 -1.627401
2008-06-26 09:31:26 51°18.034 2°34.372 22.0107 0.011542 0.063048 -1.627401
2008-06-26 09:32:26 51°18.048 2°34.371 22.0176 0.011542 0.063051 -1.627401
2008-06-26 09:33:26 51°18.057 2°34.37 22.0247 0.011542 0.063055 -1.627401
2008-06-26 09:34:26 51°18.065 2°34.371 22.0335 0.011542 0.063058 -1.627401
2008-06-26 09:35:27 51°18.071 2°34.373 22.0344 0.011542 0.063061 -1.627401
2008-06-26 09:36:26 51°18.077 2°34.376 22.0415 0.011542 0.063065 -1.627401
2008-06-26 09:37:27 51°18.082 2°34.379 22.0454 0.011542 0.06307 -1.627401
2008-06-26 09:38:27 51°18.087 2°34.378 22.0499 0.011542 0.063075 -1.627401
2008-06-26 09:39:26 51°18.09 2°34.391 22.0523 0.011542 0.063081 -1.627401
2008-06-26 09:40:26 51°18.093 2°34.397 22.0595 0.011542 0.063086 -1.627401
2008-06-26 09:41:26 51°18.097 2°34.404 22.0547 0.011542 0.063091 -1.627401
2008-06-26 09:42:27 51°18.1 2°34.411 22.0602 0.011542 0.063097 -1.627401
2008-06-26 09:43:27 51°18.102 2°34.418 22.0589 0.011542 0.063103 -1.627401
2008-06-26 09:44:27 51°18.104 2°34.425 22.0634 0.011542 0.063108 -1.627401
2008-06-26 09:45:27 51°18.107 2°34.432 22.0692 0.011439 0.062594 -1.627401
2008-06-26 09:46:27 51°18.11 2°34.439 22.0737 0.011542 0.063121 -1.627401
2008-06-26 09:47:27 51°18.114 2°34.444 22.075 0.011542 0.063129 -1.627401
2008-06-26 09:48:27 51°18.118 2°34.449 22.0802 0.011542 0.063137 -1.627401
2008-06-26 09:49:27 51°18.176 2°34.432 22.0808 0.011542 0.063144 -1.627401
2008-06-26 09:50:27 51°18.327 2°34.388 22.0854 0.011542 0.063153 -1.627401
2008-06-26 09:51:27 51°18.509 2°34.331 22.0839 0.011439 0.062642 -1.627401
2008-06-26 09:52:27 51°18.701 2°34.253 22.0872 0.011439 0.062651 -1.627401
2008-06-26 09:53:27 51°18.896 2°34.164 22.0909 0.011542 0.06318 -1.627401
2008-06-26 09:54:27 51°19.075 2°34.007 22.0123 0.011439 0.062668 -1.627401
2008-06-26 09:55:27 51°19.26 2°33.855 22.071 0.011439 0.062676 -1.627401
2008-06-26 09:56:27 51°19.436 2°33.687 22.0894 0.011439 0.062684 -1.627401
2008-06-26 09:57:27 51°19.569 2°33.44 22.0738 0.011439 0.06269 -1.627401
2008-06-26 09:58:27 51°19.71 2°33.193 22.0658 0.011439 0.062697 -1.627401
2008-06-26 09:59:27 51°19.85 2°32.966 22.0928 0.011439 0.062705 -1.627401
2008-06-26 10:00:27 51°20.009 2°32.763 22.0939 0.011439 0.062714 -1.627401
2008-06-26 10:01:27 51°20.17 2°32.561 22.0928 0.011439 0.062721 -1.627401
2008-06-26 10:02:27 51°20.328 2°32.352 22.0892 0.011439 0.062731 -1.627401
2008-06-26 10:03:27 51°20.484 2°32.143 22.1034 0.011439 0.06274 -1.627401
2008-06-26 10:04:27 51°20.64 2°31.935 22.0998 0.011439 0.062748 -1.627401
2008-06-26 10:05:27 51°20.797 2°31.724 22.1075 0.011439 0.062756 -1.627401
2008-06-26 10:06:27 51°20.949 2°31.499 22.1112 0.011439 0.062765 -1.627401
2008-06-26 10:07:27 51°21.088 2°31.244 22.1055 0.011439 0.062774 -1.627401
2008-06-26 10:08:27 51°21.23 2°30.987 22.1155 0.011439 0.062783 -1.627401
2008-06-26 10:09:27 51°21.376 2°30.75 22.045 0.011439 0.06279 -1.627401
2008-06-26 10:10:27 51°21.56 2°30.621 22.1069 0.011439 0.062798 -1.627401
2008-06-26 10:11:27 51°21.754 2°30.535 22.1153 0.011439 0.062808 -1.627401
2008-06-26 10:12:27 51°21.948 2°30.439 22.1173 0.011439 0.062815 -1.627401
2008-06-26 10:13:27 51°22.14 2°30.345 22.1145 0.011439 0.062823 -1.627401
2008-06-26 10:14:27 51°22.332 2°30.245 22.1246 0.011439 0.062829 -1.627401
2008-06-26 10:15:27 51°22.525 2°30.148 22.1086 0.011439 0.062835 -1.627401
2008-06-26 10:16:27 51°22.719 2°30.047 22.131 0.011439 0.062841 -1.627401
2008-06-26 10:17:27 51°22.916 2°29.974 22.0647 0.011439 0.062845 -1.627401
2008-06-26 10:18:27 51°23.118 2°29.986 22.1377 0.011439 0.06285 -1.627401
2008-06-26 10:19:27 51°23.317 2°29.993 22.0935 0.011439 0.062857 -1.627401
2008-06-26 10:20:27 51°23.511 2°29.991 22.1243 0.011439 0.062862 -1.627401
2008-06-26 10:21:27 51°23.643 2°29.979 22.152 0.011439 0.062866 -1.627401
2008-06-26 10:22:27 51°23.735 2°29.951 22.1588 0.011439 0.06287 -1.627401
2008-06-26 10:23:27 51°23.79 2°29.897 22.1634 0.011439 0.062877 -1.627401
2008-06-26 10:24:27 51°23.804 2°29.816 22.1765 0.011439 0.062884 -1.627401
2008-06-26 10:25:27 51°23.791 2°29.766 22.1744 0.011439 0.062888 -1.627401
2008-06-26 10:26:27 51°23.778 2°29.751 22.1872 0.011439 0.062893 -1.627401
2008-06-26 10:27:27 51°23.772 2°29.749 22.1956 0.011439 0.062898 -1.627401
2008-06-26 10:28:27 51°23.77 2°29.753 22.1925 0.011439 0.062903 -1.627401
2008-06-26 10:29:27 51°23.764 2°29.759 22.1974 0.011439 0.062906 -1.627401
2008-06-26 10:30:27 51°23.76 2°29.765 22.2066 0.011439 0.062908 -1.627401
2008-06-26 10:31:27 51°23.757 2°29.771 22.2088 0.011439 0.062911 -1.627401
2008-06-26 10:32:27 51°23.752 2°29.775 22.2031 0.011439 0.062914 -1.627401
2008-06-26 10:33:27 51°23.749 2°29.779 22.2102 0.011439 0.062917 -1.627401
2008-06-26 10:34:27 51°23.745 2°29.781 22.2227 0.011439 0.06292 -1.627401
2008-06-26 10:35:27 51°23.743 2°29.783 22.2149 0.011439 0.062923 -1.627401
2008-06-26 10:36:27 51°23.742 2°29.786 22.2094 0.011439 0.062927 -1.627401
2008-06-26 10:37:27 51°23.742 2°29.79 22.2111 0.011439 0.062929 -1.627401
2008-06-26 10:38:27 51°23.741 2°29.794 22.2216 0.011439 0.062933 -1.627401
2008-06-26 10:39:26 51°23.738 2°29.799 22.2193 0.011439 0.062936 -1.627401
2008-06-26 10:40:27 51°23.736 2°29.801 22.2172 0.011439 0.062939 -1.627401
2008-06-26 10:41:27 51°23.748 2°29.8 22.2179 0.011439 0.062943 -1.627401
2008-06-26 10:42:27 51°23.744 2°29.803 22.2254 0.011439 0.062945 -1.627401
2008-06-26 10:43:27 51°23.745 2°29.804 22.2217 0.011439 0.062947 -1.627401
2008-06-26 10:44:27 51°23.747 2°29.803 22.2274 0.011439 0.06295 -1.627401
2008-06-26 10:45:27 51°23.75 2°29.803 22.2296 0.011439 0.062952 -1.627401
2008-06-26 10:46:27 51°23.748 2°29.807 22.228 0.011439 0.062955 -1.627401
2008-06-26 10:47:27 51°23.731 2°29.812 22.2317 0.011439 0.062956 -1.627401
2008-06-26 10:48:27 51°23.716 2°29.811 22.2124 0.011439 0.062958 -1.627401
2008-06-26 10:49:27 51°23.697 2°29.806 22.2339 0.011439 0.062959 -1.627401
2008-06-26 10:50:27 51°23.688 2°29.801 22.2282 0.011439 0.062961 -1.627401
2008-06-26 10:51:27 51°23.682 2°29.797 22.2336 0.011439 0.062961 -1.627401
2008-06-26 10:52:27 51°23.686 2°29.796 22.241 0.011439 0.062963 -1.627401
2008-06-26 10:53:27 51°23.688 2°29.793 22.2362 0.011439 0.062965 -1.627401
2008-06-26 10:54:27 51°23.69 2°29.789 22.237 0.011439 0.062968 -1.627401
2008-06-26 10:55:27 51°23.689 2°29.789 22.2418 0.011439 0.06297 -1.627401
2008-06-26 10:56:27 51°23.688 2°29.788 22.2427 0.011439 0.062974 -1.627401
2008-06-26 10:57:27 51°23.685 2°29.787 22.2394 0.011439 0.062976 -1.627401
2008-06-26 10:58:27 51°23.681 2°29.787 22.2406 0.011439 0.062978 -1.627401
2008-06-26 10:59:27 51°23.677 2°29.786 22.2423 0.011439 0.062979 -1.627401
2008-06-26 11:00:27 51°23.666 2°29.8 22.2446 0.011439 0.062982 -1.627401
2008-06-26 11:01:27 51°23.658 2°29.849 22.2516 0.011439 0.062984 -1.627401
2008-06-26 11:02:27 51°23.685 2°29.883 22.2517 0.011439 0.062986 -1.627401
2008-06-26 11:03:27 51°23.715 2°29.867 22.2547 0.011439 0.062988 -1.627401
2008-06-26 11:04:27 51°23.732 2°29.83 22.2632 0.011439 0.062989 -1.627401
2008-06-26 11:05:27 51°23.736 2°29.809 22.2647 0.011439 0.062992 -1.627401
2008-06-26 11:06:27 51°23.732 2°29.808 22.2608 0.011439 0.062996 -1.627401
2008-06-26 11:07:27 51°23.727 2°29.804 22.2646 0.011439 0.063 -1.627401
2008-06-26 11:08:27 51°23.727 2°29.796 22.2681 0.011439 0.063007 -1.627401
2008-06-26 11:09:27 51°23.725 2°29.787 22.268 0.011439 0.063014 -1.627401
2008-06-26 11:10:27 51°23.721 2°29.779 22.2685 0.011439 0.063021 -1.627401
2008-06-26 11:11:27 51°23.716 2°29.772 22.2711 0.011439 0.063028 -1.627401
2008-06-26 11:12:27 51°23.712 2°29.768 22.2719 0.011439 0.063035 -1.627401
2008-06-26 11:13:27 51°23.706 2°29.763 22.2738 0.011439 0.063041 -1.627401
2008-06-26 11:14:27 51°23.701 2°29.757 22.2778 0.011439 0.063048 -1.627401
2008-06-26 11:15:27 51°23.706 2°29.746 22.2711 0.011439 0.063057 -1.592577
2008-06-26 11:16:27 51°23.734 2°29.746 22.2708 0.011439 0.063067 -1.627401
2008-06-26 11:17:27 51°23.749 2°29.777 22.2738 0.011439 0.063075 -1.627401
2008-06-26 11:18:27 51°23.744 2°29.798 22.2451 0.011439 0.06308 -1.627401
2008-06-26 11:19:27 51°23.736 2°29.802 22.2477 0.011439 0.063085 -1.627401
2008-06-26 11:20:27 51°23.727 2°29.795 22.2393 0.011439 0.063088 -1.627401
2008-06-26 11:21:27 51°23.717 2°29.787 22.2595 0.011439 0.06309 -1.627401
2008-06-26 11:22:27 51°23.71 2°29.777 22.2606 0.011439 0.063092 -1.627401
2008-06-26 11:23:27 51°23.704 2°29.768 22.266 0.011439 0.063093 -1.627401
2008-06-26 11:24:27 51°23.698 2°29.759 22.2571 0.011439 0.063094 -1.627401
2008-06-26 11:25:27 51°23.693 2°29.751 22.2564 0.011439 0.063095 -1.627401
2008-06-26 11:26:27 51°23.685 2°29.75 22.2671 0.011439 0.063095 -1.627401
2008-06-26 11:27:27 51°23.668 2°29.784 22.2668 0.011439 0.063096 -1.627401
2008-06-26 11:28:27 51°23.683 2°29.822 22.2671 0.011439 0.063096 -1.627401
2008-06-26 11:29:27 51°23.721 2°29.85 22.2729 0.011439 0.063097 -1.627401
2008-06-26 11:30:27 51°23.759 2°29.843 22.2791 0.011439 0.063098 -1.627401
2008-06-26 11:31:27 51°23.761 2°29.829 22.2828 0.011439 0.063099 -1.627401
2008-06-26 11:32:27 51°23.755 2°29.822 22.2808 0.011439 0.0631 -1.627401
2008-06-26 11:33:27 51°23.748 2°29.815 22.2863 0.011439 0.063103 -1.627401
2008-06-26 11:34:27 51°23.741 2°29.807 22.2845 0.011439 0.063109 -1.627401
2008-06-26 11:35:27 51°23.736 2°29.794 22.2838 0.011439 0.063115 -1.627401
2008-06-26 11:36:27 51°23.732 2°29.781 22.2814 0.011439 0.063124 -1.627401
2008-06-26 11:37:27 51°23.727 2°29.769 22.2845 0.011439 0.063132 -1.627401
2008-06-26 11:38:27 51°23.722 2°29.758 22.2899 0.011439 0.06314 -1.627401
2008-06-26 11:39:27 51°23.717 2°29.748 22.2924 0.011439 0.063146 -1.627401
2008-06-26 11:40:27 51°23.706 2°29.737 22.2902 0.011439 0.063154 -1.627401
2008-06-26 11:41:27 51°23.705 2°29.723 22.2913 0.011439 0.06316 -1.627401
2008-06-26 11:42:27 51°23.714 2°29.702 22.2962 0.011336 0.062642 -1.627401
2008-06-26 11:43:27 51°23.74 2°29.691 22.287 0.011336 0.062649 -1.627401
2008-06-26 11:44:27 51°23.76 2°29.727 22.2913 0.011336 0.062655 -1.627401
2008-06-26 11:45:27 51°23.77 2°29.779 22.2932 0.011336 0.062661 -1.627401
2008-06-26 11:46:27 51°23.77 2°29.819 22.2929 0.011336 0.062664 -1.627401
2008-06-26 11:47:27 51°23.759 2°29.843 22.2109 0.011336 0.062665 -1.627401
2008-06-26 11:48:27 51°23.747 2°29.838 22.2902 0.011336 0.062667 -1.627401
2008-06-26 11:49:27 51°23.739 2°29.823 22.2835 0.011336 0.06267 -1.627401
2008-06-26 11:50:27 51°23.732 2°29.807 22.2809 0.011336 0.06267 -1.627401
2008-06-26 11:51:27 51°23.725 2°29.793 22.2877 0.011336 0.06267 -1.627401
2008-06-26 11:52:27 51°23.717 2°29.779 22.2916 0.011336 0.06267 -1.627401
2008-06-26 11:53:27 51°23.708 2°29.766 22.2901 0.011336 0.062671 -1.627401
2008-06-26 11:54:27 51°23.699 2°29.755 22.284 0.011336 0.062671 -1.627401
2008-06-26 11:55:27 51°23.688 2°29.745 22.264 0.011336 0.062671 -1.627401
2008-06-26 11:56:27 51°23.671 2°29.744 22.2868 0.011336 0.06267 -1.627401
2008-06-26 11:57:27 51°23.648 2°29.77 22.2886 0.011336 0.06267 -1.627401
2008-06-26 11:58:27 51°23.645 2°29.811 22.2921 0.011336 0.062671 -1.627401
2008-06-26 11:59:27 51°23.67 2°29.838 22.2953 0.011336 0.062671 -1.627401
2008-06-26 12:00:27 51°23.705 2°29.88 22.315 0.011336 0.06267 -1.627401
2008-06-26 12:01:27 51°23.742 2°29.889 22.2987 0.011336 0.06267 -1.627401
2008-06-26 12:02:27 51°23.763 2°29.871 22.3012 0.011336 0.06267 -1.627401
2008-06-26 12:03:27 51°23.766 2°29.846 22.3047 0.011336 0.062673 -1.627401
2008-06-26 12:04:27 51°23.76 2°29.829 22.3079 0.011336 0.062676 -1.627401
2008-06-26 12:05:27 51°23.748 2°29.82 22.3152 0.011336 0.062679 -1.627401
2008-06-26 12:06:27 51°23.739 2°29.808 22.3132 0.011336 0.062684 -1.627401
2008-06-26 12:07:27 51°23.729 2°29.796 22.3165 0.011336 0.06269 -1.627401
2008-06-26 12:08:27 51°23.719 2°29.784 22.3132 0.011336 0.062698 -1.627401
2008-06-26 12:09:27 51°23.709 2°29.773 22.3172 0.011336 0.062706 -1.627401
2008-06-26 12:10:27 51°23.7 2°29.762 22.3159 0.011336 0.062713 -1.627401
2008-06-26 12:11:27 51°23.69 2°29.751 22.3145 0.011336 0.062721 -1.627401
2008-06-26 12:12:27 51°23.68 2°29.741 22.3199 0.011336 0.062728 -1.627401
2008-06-26 12:13:27 51°23.671 2°29.731 22.3219 0.011336 0.062736 -1.627401
2008-06-26 12:14:27 51°23.662 2°29.72 22.3202 0.011336 0.062744 -1.627401
2008-06-26 12:15:27 51°23.653 2°29.708 22.3244 0.011336 0.062752 -1.627401
2008-06-26 12:16:27 51°23.65 2°29.69 22.3304 0.011336 0.062758 -1.627401
2008-06-26 12:17:27 51°23.655 2°29.6 22.3266 0.011336 0.062766 -1.627401
2008-06-26 12:18:26 51°23.589 2°29.526 22.3215 0.011336 0.062768 -1.627401
2008-06-26 12:19:27 51°23.467 2°29.615 22.2927 0.011336 0.062773 -1.627401
2008-06-26 12:20:26 51°23.31 2°29.732 22.2867 0.011336 0.062777 -1.627401
2008-06-26 12:21:27 51°23.139 2°29.864 22.2924 0.011336 0.062781 -1.627401
2008-06-26 12:22:26 51°22.982 2°30.018 22.2954 0.011336 0.062782 -1.627401
2008-06-26 12:23:27 51°22.823 2°30.217 22.3048 0.011336 0.062781 -1.627401
2008-06-26 12:24:26 51°22.711 2°30.462 22.2817 0.011336 0.062782 -1.627401
2008-06-26 12:25:27 51°22.593 2°30.712 22.3071 0.011336 0.062782 -1.627401
2008-06-26 12:26:27 51°22.471 2°30.951 22.2973 0.011336 0.062783 -1.627401
2008-06-26 12:27:27 51°22.345 2°31.185 22.2925 0.011336 0.062783 -1.627401
2008-06-26 12:28:27 51°22.221 2°31.416 22.2712 0.011336 0.062783 -1.627401
2008-06-26 12:29:27 51°22.091 2°31.648 22.2972 0.011336 0.062782 -1.627401
2008-06-26 12:30:28 51°21.96 2°31.887 22.2999 0.011336 0.062783 -1.627401
2008-06-26 12:31:26 51°21.839 2°32.119 22.3502 0.011336 0.062785 -1.627401
2008-06-26 12:32:27 51°21.713 2°32.365 22.3076 0.011336 0.062788 -1.627401
2008-06-26 12:33:27 51°21.591 2°32.613 22.3465 0.011336 0.06279 -1.627401
2008-06-26 12:34:27 51°21.463 2°32.858 22.3817 0.011336 0.062788 -1.627401
2008-06-26 12:35:27 51°21.339 2°33.105 22.3426 0.011336 0.062788 -1.627401
2008-06-26 12:36:27 51°21.218 2°33.357 22.3524 0.011336 0.062788 -1.627401
2008-06-26 12:37:28 51°21.092 2°33.607 22.462 0.011336 0.062787 -1.627401
2008-06-26 12:38:26 51°20.975 2°33.847 22.4897 0.011336 0.062785 -1.627401
2008-06-26 12:39:27 51°20.85 2°34.097 22.47 0.011336 0.062785 -1.627401
2008-06-26 12:40:26 51°20.731 2°34.335 22.4872 0.011336 0.062788 -1.592577
2008-06-26 12:41:26 51°20.609 2°34.578 22.4663 0.011336 0.062783 -1.627401
2008-06-26 12:42:27 51°20.485 2°34.827 22.4817 0.011336 0.062782 -1.627401
2008-06-26 12:43:26 51°20.368 2°35.067 22.4838 0.011336 0.06278 -1.627401
2008-06-26 12:44:27 51°20.245 2°35.31 22.4619 0.011336 0.062778 -1.627401
2008-06-26 12:45:26 51°20.126 2°35.547 22.4706 0.011336 0.062777 -1.627401
2008-06-26 12:46:27 51°20 2°35.788 22.5111 0.011336 0.062775 -1.627401
2008-06-26 12:47:26 51°19.88 2°36.027 22.4688 0.011336 0.062774 -1.627401
2008-06-26 12:48:27 51°19.751 2°36.275 22.4722 0.011336 0.062773 -1.627401
2008-06-26 12:49:26 51°19.629 2°36.515 22.4589 0.011336 0.062768 -1.627401
2008-06-26 12:50:27 51°19.503 2°36.76 22.5024 0.011336 0.062769 -1.627401
2008-06-26 12:51:27 51°19.378 2°37.005 22.4716 0.011336 0.062769 -1.627401
2008-06-26 12:52:27 51°19.254 2°37.25 22.4682 0.011336 0.062771 -1.627401
2008-06-26 12:53:27 51°19.135 2°37.499 22.4771 0.011336 0.062776 -1.592577
2008-06-26 12:54:26 51°19.016 2°37.742 22.4695 0.011336 0.062776 -1.627401
2008-06-26 12:55:27 51°18.895 2°37.997 22.4617 0.011336 0.062769 -1.627401
2008-06-26 12:56:26 51°18.773 2°38.249 22.4887 0.011336 0.062771 -1.627401
2008-06-26 12:57:27 51°18.652 2°38.513 22.4624 0.011336 0.062771 -1.627401
2008-06-26 12:58:27 51°18.545 2°38.779 22.4561 0.011336 0.06277 -1.627401
2008-06-26 12:59:26 51°18.44 2°39.043 22.4654 0.011336 0.062768 -1.627401
2008-06-26 13:00:27 51°18.331 2°39.321 22.4551 0.011336 0.062765 -1.627401
2008-06-26 13:01:26 51°18.231 2°39.585 22.4539 0.011439 0.06329 -1.592577
2008-06-26 13:02:27 51°18.126 2°39.861 22.4696 0.011439 0.063288 -1.627401
2008-06-26 13:03:26 51°18.023 2°40.122 22.476 0.011439 0.063286 -1.627401
2008-06-26 13:04:27 51°17.92 2°40.387 22.4605 0.011439 0.063284 -1.627401
2008-06-26 13:05:27 51°17.817 2°40.651 22.4642 0.011439 0.063282 -1.592577
2008-06-26 13:06:27 51°17.716 2°40.915 22.5015 0.011439 0.063281 -1.627401
2008-06-26 13:07:27 51°17.62 2°41.191 22.4792 0.011439 0.06328 -1.627401
2008-06-26 13:08:27 51°17.531 2°41.473 22.4537 0.011439 0.063279 -1.627401
2008-06-26 13:09:27 51°17.44 2°41.757 22.4628 0.011439 0.063278 -1.627401
2008-06-26 13:10:27 51°17.354 2°42.037 22.4691 0.011439 0.063278 -1.627401
2008-06-26 13:11:27 51°17.268 2°42.317 22.4999 0.011439 0.063277 -1.592577
2008-06-26 13:12:26 51°17.184 2°42.59 22.4781 0.011439 0.063275 -1.627401
2008-06-26 13:13:27 51°17.096 2°42.865 22.4889 0.011439 0.063273 -1.627401
2008-06-26 13:14:26 51°17.006 2°43.137 22.5101 0.011439 0.063273 -1.627401
2008-06-26 13:15:27 51°16.913 2°43.417 22.4996 0.011439 0.063271 -1.627401
2008-06-26 13:16:27 51°16.823 2°43.694 22.4901 0.011439 0.063268 -1.592577
2008-06-26 13:17:26 51°16.732 2°43.97 22.4934 0.011439 0.063267 -1.627401
2008-06-26 13:18:27 51°16.639 2°44.256 22.5009 0.011439 0.063264 -1.627401
2008-06-26 13:19:26 51°16.545 2°44.533 22.5116 0.011439 0.063262 -1.627401
2008-06-26 13:20:27 51°16.453 2°44.824 22.5126 0.011439 0.063261 -1.627401
2008-06-26 13:21:27 51°16.371 2°45.117 22.5024 0.011439 0.063259 -1.627401
2008-06-26 13:22:28 51°16.282 2°45.412 22.5159 0.011439 0.063257 -1.627401
2008-06-26 13:23:27 51°16.201 2°45.701 22.51 0.011439 0.063255 -1.627401
2008-06-26 13:24:27 51°16.12 2°45.995 22.522 0.011439 0.063254 -1.627401
2008-06-26 13:25:27 51°16.038 2°46.29 22.5306 0.011439 0.063251 -1.627401
2008-06-26 13:26:27 51°15.953 2°46.583 22.5428 0.011439 0.063249 -1.627401
2008-06-26 13:27:27 51°15.867 2°46.879 22.5471 0.011439 0.063247 -1.592577
2008-06-26 13:28:27 51°15.791 2°47.176 22.5427 0.011439 0.063243 -1.627401
2008-06-26 13:29:27 51°15.727 2°47.474 22.56 0.011439 0.063242 -1.627401
2008-06-26 13:30:27 51°15.665 2°47.768 22.5554 0.011439 0.063238 -1.627401
2008-06-26 13:31:28 51°15.596 2°48.069 22.5574 0.011439 0.063234 -1.627401
2008-06-26 13:32:28 51°15.531 2°48.367 22.5633 0.011439 0.063231 -1.627401
2008-06-26 13:33:28 51°15.469 2°48.666 22.5768 0.011439 0.063228 -1.627401
2008-06-26 13:34:27 51°15.407 2°48.965 22.5675 0.011439 0.063225 -1.627401
2008-06-26 13:35:26 51°15.348 2°49.263 22.5805 0.011439 0.063222 -1.627401
2008-06-26 13:36:28 51°15.284 2°49.574 22.5888 0.011439 0.063218 -1.627401
2008-06-26 13:37:26 51°15.227 2°49.865 22.5874 0.011439 0.063213 -1.627401
2008-06-26 13:38:28 51°15.164 2°50.172 22.5934 0.011439 0.063209 -1.627401
2008-06-26 13:39:28 51°15.101 2°50.471 22.5987 0.011439 0.063205 -1.592577
2008-06-26 13:40:28 51°15.039 2°50.77 22.6052 0.011439 0.063201 -1.627401
2008-06-26 13:41:28 51°14.976 2°51.064 22.6132 0.011439 0.063196 -1.627401
2008-06-26 13:42:28 51°14.921 2°51.355 22.6128 0.011439 0.063193 -1.627401
2008-06-26 13:43:28 51°14.865 2°51.649 22.6202 0.011439 0.063189 -1.627401
2008-06-26 13:44:28 51°14.816 2°51.947 22.6279 0.011439 0.063185 -1.627401
2008-06-26 13:45:28 51°14.776 2°52.249 22.6283 0.011439 0.063181 -1.627401
2008-06-26 13:46:27 51°14.736 2°52.548 22.6355 0.011439 0.063177 -1.627401
2008-06-26 13:47:28 51°14.693 2°52.849 22.6475 0.011439 0.063174 -1.627401
2008-06-26 13:48:28 51°14.654 2°53.099 22.6465 0.011439 0.063169 -1.627401
2008-06-26 13:49:28 51°14.616 2°53.34 22.6535 0.011439 0.063165 -1.627401
2008-06-26 13:50:28 51°14.583 2°53.551 22.661 0.011439 0.063161 -1.627401
2008-06-26 13:51:28 51°14.55 2°53.745 22.6636 0.011439 0.063157 -1.627401
2008-06-26 13:52:28 51°14.523 2°53.91 22.6729 0.011439 0.063153 -1.627401
2008-06-26 13:53:26 51°14.502 2°54.021 22.6787 0.011439 0.063149 -1.627401
2008-06-26 13:54:28 51°14.478 2°54.118 22.6884 0.011439 0.063145 -1.627401
2008-06-26 13:55:28 51°14.459 2°54.204 22.6903 0.011439 0.06314 -1.627401
2008-06-26 13:56:28 51°14.439 2°54.283 22.6977 0.011439 0.063135 -1.592577
2008-06-26 13:57:28 51°14.42 2°54.362 22.7051 0.011439 0.06313 -1.627401
2008-06-26 13:58:28 51°14.403 2°54.431 22.7106 0.011439 0.063125 -1.592577
2008-06-26 13:59:28 51°14.388 2°54.488 22.718 0.011439 0.063121 -1.627401
2008-06-26 14:00:28 51°14.376 2°54.536 22.7223 0.011439 0.063117 -1.627401
2008-06-26 14:01:28 51°14.362 2°54.576 22.7257 0.011439 0.063112 -1.627401
2008-06-26 14:02:28 51°14.351 2°54.597 22.7355 0.011439 0.063107 -1.592577
2008-06-26 14:03:28 51°14.358 2°54.67 22.7427 0.011439 0.063101 -1.627401
2008-06-26 14:04:28 51°14.397 2°54.744 22.7556 0.011439 0.063095 -1.627401
2008-06-26 14:05:28 51°14.408 2°54.872 22.7752 0.011439 0.063088 -1.627401
2008-06-26 14:06:28 51°14.332 2°55.103 22.7798 0.011439 0.063081 -1.627401
2008-06-26 14:07:28 51°14.201 2°55.334 22.788 0.011439 0.063075 -1.627401
2008-06-26 14:08:28 51°14.047 2°55.474 22.7915 0.011439 0.063069 -1.627401